TA3MHA Weather Reports


time (UTC)temp
C
wind
direction
speed
KPH
gust
KPH
rain 1hr
cm
rain 24hr
cm
rain mn
cm
humidity
%
barometer
mb
20260507153500 23 257 3.2 4.8 0.00 0.00 0.00 35
20260507153001 23 265 3.2 3.2 0.00 0.00 0.00 33
20260507152500 23 235 1.6 3.2 0.00 0.00 0.00 33
20260507152001 23 244 8.0 8.0 0.00 0.00 0.00 33
20260507151500 23 186 3.2 6.4 0.00 0.00 0.00 33
20260507151000 23 173 0.0 6.4 0.00 0.00 0.00 31
20260507150500 24 222 0.0 3.2 0.00 0.00 0.00 31
20260507150000 24 251 9.7 9.7 0.00 0.00 0.00 32
20260507145500 24 211 4.8 8.0 0.00 0.00 0.00 31
20260507145000 23 223 6.4 8.0 0.00 0.00 0.00 33
20260507144500 23 211 8.0 9.7 0.00 0.00 0.00 34
20260507144000 23 216 6.4 8.0 0.00 0.00 0.00 34
20260507143500 23 254 3.2 4.8 0.00 0.00 0.00 34
20260507143000 23 237 4.8 8.0 0.00 0.00 0.00 34
20260507142500 23 251 6.4 9.7 0.00 0.00 0.00 34
20260507142001 23 252 12.9 12.9 0.00 0.00 0.00 33
20260507141501 23 241 4.8 6.4 0.00 0.00 0.00 35
20260507141000 23 239 9.7 14.5 0.00 0.00 0.00 32
20260507140501 23 239 12.9 12.9 0.00 0.00 0.00 32
20260507140000 23 251 8.0 9.7 0.00 0.00 0.00 33
20260507135501 23 260 9.7 12.9 0.00 0.00 0.00 33
20260507135000 24 249 9.7 11.3 0.00 0.00 0.00 33
20260507134501 24 269 9.7 9.7 0.00 0.00 0.00 33
20260507134001 24 233 8.0 9.7 0.00 0.00 0.00 32
20260507133500 24 222 9.7 11.3 0.00 0.00 0.00 31
20260507133000 25 271 4.8 6.4 0.00 0.00 0.00 31
20260507132500 24 253 6.4 8.0 0.00 0.00 0.00 30
20260507132002 24 227 4.8 6.4 0.00 0.00 0.00 30
20260507131501 25 225 6.4 8.0 0.00 0.00 0.00 30
20260507131000 25 230 8.0 8.0 0.00 0.00 0.00 28
20260507130500 25 229 9.7 9.7 0.00 0.00 0.00 28
20260507130001 25 226 12.9 12.9 0.00 0.00 0.00 29
20260507125500 25 272 6.4 8.0 0.00 0.00 0.00 30
20260507125001 25 267 11.3 12.9 0.00 0.00 0.00 28
20260507124501 25 273 6.4 6.4 0.00 0.00 0.00 27
20260507124008 25 240 12.9 14.5 0.00 0.00 0.00 27
20260507123501 25 266 6.4 9.7 0.00 0.00 0.00 25
20260507123000 25 274 4.8 6.4 0.00 0.00 0.00 28
20260507122500 26 242 14.5 16.1 0.00 0.00 0.00 26
20260507122001 26 237 14.5 14.5 0.00 0.00 0.00 25
20260507121501 26 191 11.3 11.3 0.00 0.00 0.00 24
20260507121001 26 185 6.4 9.7 0.00 0.00 0.00 26
20260507120500 26 219 9.7 14.5 0.00 0.00 0.00 26
20260507120000 26 191 8.0 14.5 0.00 0.00 0.00 24
20260507115500 26 170 3.2 3.2 0.00 0.00 0.00 24
20260507115000 26 233 11.3 20.9 0.00 0.00 0.00 25
20260507114500 26 232 6.4 11.3 0.00 0.00 0.00 24
20260507114000 26 254 11.3 16.1 0.00 0.00 0.00 25
20260507113501 26 256 6.4 8.0 0.00 0.00 0.00 25
20260507113000 26 214 6.4 8.0 0.00 0.00 0.00 25
20260507112500 26 175 12.9 14.5 0.00 0.00 0.00 25
20260507112000 26 214 6.4 8.0 0.00 0.00 0.00 23
20260507111500 26 192 3.2 8.0 0.00 0.00 0.00 24
20260507111000 26 216 8.0 12.9 0.00 0.00 0.00 24
20260507110500 26 287 9.7 9.7 0.00 0.00 0.00 25
20260507110000 25 182 6.4 12.9 0.00 0.00 0.00 26
20260507105500 25 200 12.9 17.7 0.00 0.00 0.00 26
20260507105000 25 213 8.0 11.3 0.00 0.00 0.00 25
20260507104500 25 182 3.2 8.0 0.00 0.00 0.00 24
20260507104000 25 236 11.3 14.5 0.00 0.00 0.00 25
20260507103500 26 170 9.7 9.7 0.00 0.00 0.00 26
20260507103000 25 172 3.2 9.7 0.00 0.00 0.00 25
20260507102500 25 194 14.5 16.1 0.00 0.00 0.00 24
20260507102001 25 181 6.4 9.7 0.00 0.00 0.00 26
20260507101500 26 174 12.9 14.5 0.00 0.00 0.00 27
20260507101000 25 244 8.0 8.0 0.00 0.00 0.00 24
20260507100500 25 201 3.2 3.2 0.00 0.00 0.00 27
20260507100000 25 217 6.4 11.3 0.00 0.00 0.00 26
20260507095500 25 201 6.4 8.0 0.00 0.00 0.00 28
20260507095000 25 191 4.8 6.4 0.00 0.00 0.00 28
20260507094500 25 213 11.3 12.9 0.00 0.00 0.00 28
20260507094000 25 191 9.7 17.7 0.00 0.00 0.00 27
20260507093500 25 355 4.8 9.7 0.00 0.00 0.00 27
20260507093000 25 273 6.4 8.0 0.00 0.00 0.00 30
20260507092501 25 212 0.0 6.4 0.00 0.00 0.00 28
20260507092000 25 264 14.5 14.5 0.00 0.00 0.00 29
20260507091500 25 213 6.4 9.7 0.00 0.00 0.00 28
20260507091000 25 182 12.9 14.5 0.00 0.00 0.00 30
20260507090500 25 182 12.9 14.5 0.00 0.00 0.00 27
20260507090001 25 194 8.0 14.5 0.00 0.00 0.00 30
20260507085500 25 230 4.8 6.4 0.00 0.00 0.00 32
20260507085000 24 274 6.4 9.7 0.00 0.00 0.00 30
20260507084500 25 254 11.3 11.3 0.00 0.00 0.00 29
20260507084000 24 192 11.3 14.5 0.00 0.00 0.00 31
20260507083500 24 238 3.2 6.4 0.00 0.00 0.00 31
20260507083000 23 227 6.4 8.0 0.00 0.00 0.00 29
20260507082500 24 256 4.8 9.7 0.00 0.00 0.00 30
20260507082000 24 262 8.0 8.0 0.00 0.00 0.00 29
20260507081500 24 279 6.4 6.4 0.00 0.00 0.00 31
20260507081000 24 180 8.0 11.3 0.00 0.00 0.00 29
20260507080500 24 234 4.8 9.7 0.00 0.00 0.00 32
20260507080000 24 249 11.3 14.5 0.00 0.00 0.00 30
20260507075500 24 247 8.0 8.0 0.00 0.00 0.00 31
20260507075000 23 191 4.8 8.0 0.00 0.00 0.00 33
20260507074500 22 355 6.4 6.4 0.00 0.00 0.00 39
20260507074000 22 8 4.8 4.8 0.00 0.00 0.00 47
20260507073500 22 10 3.2 3.2 0.00 0.00 0.00 37
20260507073000 21 276 3.2 9.7 0.00 0.00 0.00 47
20260507072500 21 352 9.7 9.7 0.00 0.00 0.00 49
20260507072000 20 33 6.4 8.0 0.00 0.00 0.00 49
20260507071500 20 358 6.4 8.0 0.00 0.00 0.00 50
20260507071000 20 6 9.7 9.7 0.00 0.00 0.00 51
20260507070500 20 14 3.2 4.8 0.00 0.00 0.00 50
20260507070000 20 17 4.8 4.8 0.00 0.00 0.00 49
20260507065500 20 3 3.2 4.8 0.00 0.00 0.00 50
20260507065000 20 7 6.4 6.4 0.00 0.00 0.00 50
20260507064500 20 13 1.6 3.2 0.00 0.00 0.00 52
20260507064000 20 18 4.8 4.8 0.00 0.00 0.00 52
20260507063500 19 26 3.2 6.4 0.00 0.00 0.00 54
20260507063000 18 317 0.0 1.6 0.00 0.00 0.00 53
20260507062500 18 0 4.8 4.8 0.00 0.00 0.00 54
20260507062002 19 5 3.2 4.8 0.00 0.00 0.00 54
20260507061502 20 350 3.2 3.2 0.00 0.00 0.00 52
20260507061000 20 82 3.2 4.8 0.00 0.00 0.00 51
20260507060500 20 42 3.2 3.2 0.00 0.00 0.00 53
20260507060000 18 165 0.0 0.0 0.00 0.00 0.00 53
20260507055500 18 210 0.0 1.6 0.00 0.00 0.00 54
20260507055000 17 304 0.0 1.6 0.00 0.00 0.00 57
20260507054500 17 269 1.6 3.2 0.00 0.00 0.00 56
20260507054000 17 219 0.0 3.2 0.00 0.00 0.00 57
20260507053500 17 227 1.6 1.6 0.00 0.00 0.00 57
20260507053000 17 235 0.0 1.6 0.00 0.00 0.00 57
20260507052500 17 333 0.0 1.6 0.00 0.00 0.00 59
20260507052000 16 32 0.0 0.0 0.00 0.00 0.00 57
20260507051500 16 324 0.0 0.0 0.00 0.00 0.00 58
20260507051000 15 249 0.0 0.0 0.00 0.00 0.00 64
20260507050500 14 31 0.0 1.6 0.00 0.00 0.00 67
20260507050000 14 305 1.6 1.6 0.00 0.00 0.00 65
20260507045500 14 288 1.6 3.2 0.00 0.00 0.00 67
20260507045000 14 267 0.0 0.0 0.00 0.00 0.00 65
20260507044500 15 275 1.6 3.2 0.00 0.00 0.00 64
20260507044000 15 303 0.0 1.6 0.00 0.00 0.00 55
20260507043500 15 285 0.0 0.0 0.00 0.00 0.00 63
20260507043000 14 237 0.0 0.0 0.00 0.00 0.00 60
20260507042500 13 167 0.0 0.0 0.00 0.00 0.00 65
20260507042000 12 49 1.6 1.6 0.00 0.00 0.00 69
20260507041500 11 86 1.6 1.6 0.00 0.00 0.00 73
20260507041000 10 84 0.0 0.0 0.00 0.00 0.00 73
20260507040500 11 310 0.0 1.6 0.00 0.00 0.00 70
20260507040000 11 278 0.0 0.0 0.00 0.00 0.00 69
20260507035500 10 4 0.0 0.0 0.00 0.00 0.00 71
20260507035000 10 269 0.0 0.0 0.00 0.00 0.00 71
20260507034500 10 296 1.6 3.2 0.00 0.00 0.00 70
20260507034000 11 230 0.0 0.0 0.00 0.00 0.00 69
20260507033500 11 117 0.0 1.6 0.00 0.00 0.00 69
20260507033000 10 85 1.6 1.6 0.00 0.00 0.00 68
20260507032500 10 184 0.0 0.0 0.00 0.00 0.00 70
20260507032000 9 260 3.2 3.2 0.00 0.00 0.00 72
20260507031500 9 146 0.0 1.6 0.00 0.00 0.00 74
20260507031000 9 49 0.0 1.6 0.00 0.00 0.00 75
20260507030500 9 103 3.2 3.2 0.00 0.00 0.00 76
20260507030000 8 130 1.6 1.6 0.00 0.00 0.00 79
20260507025500 8 142 3.2 3.2 0.00 0.00 0.00 80
20260507025000 8 293 0.0 1.6 0.00 0.00 0.00 78
20260507024500 9 327 0.0 1.6 0.00 0.00 0.00 75
20260507024000 10 302 0.0 3.2 0.00 0.00 0.00 71
20260507023500 10 217 0.0 0.0 0.00 0.00 0.00 70
20260507023000 10 142 0.0 0.0 0.00 0.00 0.00 72
20260507022500 10 56 3.2 3.2 0.00 0.00 0.00 73
20260507022000 9 178 3.2 3.2 0.00 0.00 0.00 75
20260507021500 9 275 1.6 3.2 0.00 0.00 0.00 76
20260507021000 9 271 1.6 3.2 0.00 0.00 0.00 77
20260507020500 9 165 0.0 1.6 0.00 0.00 0.00 76
20260507020000 9 297 3.2 4.8 0.00 0.00 0.00 78
20260507015501 8 148 1.6 1.6 0.00 0.00 0.00 79
20260507015000 9 276 3.2 3.2 0.00 0.00 0.00 78
20260507014501 9 62 0.0 0.0 0.00 0.00 0.00 77
20260507014000 10 281 1.6 1.6 0.00 0.00 0.00 75
20260507013500 10 283 0.0 1.6 0.00 0.00 0.00 74
20260507013001 9 262 0.0 1.6 0.00 0.00 0.00 76
20260507012501 9 124 0.0 0.0 0.00 0.00 0.00 77
20260507012001 9 334 3.2 3.2 0.00 0.00 0.00 79
20260507011500 8 298 3.2 3.2 0.00 0.00 0.00 79
20260507011000 9 212 0.0 0.0 0.00 0.00 0.00 79
20260507010500 9 303 4.8 6.4 0.00 0.00 0.00 78
20260507010000 8 149 3.2 3.2 0.00 0.00 0.00 81
20260507005500 8 170 1.6 3.2 0.00 0.00 0.00 80
20260507005000 9 263 0.0 3.2 0.00 0.00 0.00 78
20260507004500 10 293 0.0 1.6 0.00 0.00 0.00 74
20260507004000 10 358 0.0 0.0 0.00 0.00 0.00 71
20260507003500 11 241 0.0 1.6 0.00 0.00 0.00 71
20260507003000 10 269 1.6 3.2 0.00 0.00 0.00 72
20260507002500 10 4 1.6 3.2 0.00 0.00 0.00 73
20260507002000 10 358 3.2 3.2 0.00 0.00 0.00 72
20260507001500 10 34 4.8 4.8 0.00 0.00 0.00 74
20260507001000 10 45 4.8 4.8 0.00 0.00 0.00 77
20260507000500 10 329 4.8 6.4 0.00 0.00 0.00 75
20260507000000 10 322 3.2 3.2 0.00 0.00 0.00 73
20260506235500 10 166 3.2 3.2 0.00 0.00 0.00 75
20260506235000 10 150 1.6 3.2 0.00 0.00 0.00 77
20260506234500 10 114 0.0 3.2 0.00 0.00 0.00 77
20260506234000 10 152 1.6 1.6 0.00 0.00 0.00 76
20260506233500 11 315 3.2 3.2 0.00 0.00 0.00 72
20260506233000 11 242 0.0 1.6 0.00 0.00 0.00 72
20260506232500 10 81 0.0 0.0 0.00 0.00 0.00 75
20260506232001 10 153 0.0 0.0 0.00 0.00 0.00 75
20260506231500 10 282 3.2 3.2 0.00 0.00 0.00 75
20260506231000 10 237 0.0 3.2 0.00 0.00 0.00 75
20260506230500 10 339 0.0 0.0 0.00 0.00 0.00 76
20260506230000 10 25 0.0 1.6 0.00 0.00 0.00 77
20260506225500 10 117 0.0 0.0 0.00 0.00 0.00 76
20260506225000 10 308 1.6 1.6 0.00 0.00 0.00 75
20260506224500 10 322 0.0 0.0 0.00 0.00 0.00 75
20260506224000 10 299 0.0 0.0 0.00 0.00 0.00 74
20260506223500 10 70 3.2 3.2 0.00 0.00 0.00 74
20260506223000 10 54 4.8 4.8 0.00 0.00 0.00 74
20260506222500 11 311 0.0 0.0 0.00 0.00 0.00 72
20260506222001 11 269 0.0 0.0 0.00 0.00 0.00 71
20260506221500 11 351 1.6 1.6 0.00 0.00 0.00 71
20260506221001 11 148 3.2 3.2 0.00 0.00 0.00 73
20260506220500 11 146 3.2 4.8 0.00 0.00 0.00 73
20260506220000 11 337 0.0 0.0 0.00 0.00 0.00 73
20260506215500 11 184 0.0 1.6 0.00 0.00 0.00 73
20260506215000 10 301 3.2 3.2 0.00 0.00 0.00 75
20260506214500 10 307 3.2 3.2 0.00 0.00 0.00 75
20260506214000 11 296 1.6 3.2 0.00 0.00 0.00 73
20260506213500 11 334 0.0 0.0 0.00 0.00 0.00 71
20260506213000 11 89 0.0 0.0 0.00 0.00 0.00 72
20260506212501 11 37 0.0 0.0 0.00 0.00 0.00 72
20260506212000 11 153 3.2 3.2 0.00 0.00 0.00 72
20260506211500 10 185 1.6 3.2 0.00 0.00 0.00 76
20260506211000 10 194 3.2 4.8 0.00 0.00 0.00 77
20260506210502 10 214 4.8 4.8 0.00 0.00 0.00 74
20260506210000 11 230 6.4 8.0 0.00 0.00 0.00 69
20260506205500 12 105 3.2 4.8 0.00 0.00 0.00 65
20260506205000 13 101 8.0 9.7 0.00 0.00 0.00 63
20260506204500 13 135 4.8 6.4 0.00 0.00 0.00 62
20260506204000 12 99 4.8 6.4 0.00 0.00 0.00 63
20260506203500 12 25 0.0 0.0 0.00 0.00 0.00 64
20260506203000 12 11 4.8 4.8 0.00 0.00 0.00 64
20260506202500 12 16 6.4 6.4 0.00 0.00 0.00 66
20260506202000 12 338 3.2 3.2 0.00 0.00 0.00 66
20260506201500 12 18 3.2 3.2 0.00 0.00 0.00 64
20260506201000 12 62 6.4 6.4 0.00 0.00 0.00 65
20260506200500 12 160 3.2 4.8 0.00 0.00 0.00 69
20260506200000 12 57 0.0 1.6 0.00 0.00 0.00 69
20260506195500 12 188 3.2 6.4 0.00 0.00 0.00 68
20260506195000 12 220 3.2 3.2 0.00 0.00 0.00 70
20260506194500 12 6 0.0 1.6 0.00 0.00 0.00 71
20260506194000 12 11 3.2 4.8 0.00 0.00 0.00 69
20260506193500 12 328 4.8 4.8 0.00 0.00 0.00 68
20260506193000 12 172 1.6 3.2 0.00 0.00 0.00 67
20260506192500 12 212 1.6 3.2 0.00 0.00 0.00 68
20260506192000 12 278 0.0 1.6 0.00 0.00 0.00 69
20260506191500 12 284 0.0 3.2 0.00 0.00 0.00 70
20260506191000 12 330 3.2 6.4 0.00 0.00 0.00 69
20260506190501 12 318 3.2 6.4 0.00 0.00 0.00 70
20260506190001 12 312 6.4 6.4 0.00 0.00 0.00 69
20260506185500 12 242 0.0 0.0 0.00 0.00 0.00 68
20260506185000 13 342 1.6 3.2 0.00 0.00 0.00 67
20260506184501 13 324 3.2 3.2 0.00 0.00 0.00 66
20260506184000 13 217 0.0 0.0 0.00 0.00 0.00 66
20260506183500 13 211 0.0 1.6 0.00 0.00 0.00 66
20260506183000 13 141 3.2 3.2 0.00 0.00 0.00 65
20260506182500 13 164 0.0 1.6 0.00 0.00 0.00 65
20260506182001 13 62 0.0 0.0 0.00 0.00 0.00 66
20260506181501 13 0 3.2 3.2 0.00 0.00 0.00 67
20260506181000 13 269 0.0 0.0 0.00 0.00 0.00 66
20260506180500 14 167 0.0 1.6 0.00 0.00 0.00 64
20260506180001 14 159 3.2 6.4 0.00 0.00 0.00 63
20260506175500 14 158 4.8 6.4 0.00 0.00 0.00 63
20260506175000 15 162 3.2 3.2 0.00 0.00 0.00 62
20260506174500 15 257 0.0 1.6 0.00 0.00 0.00 61
20260506174000 15 269 0.0 0.0 0.00 0.00 0.00 60
20260506173500 15 58 0.0 0.0 0.00 0.00 0.00 59
20260506173001 15 296 1.6 1.6 0.00 0.00 0.00 57
20260506172500 16 283 0.0 1.6 0.00 0.00 0.00 52
20260506172000 16 297 1.6 3.2 0.00 0.00 0.00 50
20260506171500 17 358 0.0 0.0 0.00 0.00 0.00 47
20260506171000 17 156 0.0 0.0 0.00 0.00 0.00 47
20260506170500 18 224 0.0 0.0 0.00 0.00 0.00 45
20260506170000 18 344 0.0 0.0 0.00 0.00 0.00 44
20260506165500 18 321 0.0 1.6 0.00 0.00 0.00 43
20260506165000 18 327 0.0 1.6 0.00 0.00 0.00 43
20260506164500 19 14 0.0 3.2 0.00 0.00 0.00 43
20260506164000 19 349 3.2 4.8 0.00 0.00 0.00 41
20260506163500 20 14 1.6 4.8 0.00 0.00 0.00 40
20260506163000 20 35 3.2 4.8 0.00 0.00 0.00 39
20260506162500 20 39 3.2 4.8 0.00 0.00 0.00 38
20260506162000 20 13 3.2 4.8 0.00 0.00 0.00 38
20260506161500 20 353 3.2 4.8 0.00 0.00 0.00 37
20260506161000 20 337 4.8 4.8 0.00 0.00 0.00 38
20260506160500 20 269 3.2 4.8 0.00 0.00 0.00 39
20260506160001 20 359 6.4 6.4 0.00 0.00 0.00 38
20260506155500 20 31 4.8 8.0 0.00 0.00 0.00 38
20260506155000 20 13 4.8 6.4 0.00 0.00 0.00 38
20260506154500 21 3 6.4 9.7 0.00 0.00 0.00 37
20260506154000 21 37 3.2 6.4 0.00 0.00 0.00 38